Time,TemperatureF,DewpointF,PressureIn,WindDirection,WindDirectionDegrees,WindSpeedMPH,WindSpeedGustMPH,Humidity,HourlyPrecipIn,Conditions,Clouds,dailyrainin,SoftwareType,DateUTC
2013-01-12 00:03:00,51.0,46.0,-100.00,SE,142,4.0,8.0,89,0.00,,,-99.99,,2013-01-12 05:03:00,
2013-01-12 00:12:00,51.0,46.0,-100.00,SE,144,4.0,8.0,88,0.00,,,-99.99,,2013-01-12 05:12:00,
2013-01-12 00:22:00,51.0,46.0,-100.00,SE,142,4.0,8.0,88,0.00,,,-99.99,,2013-01-12 05:22:00,
2013-01-12 00:32:00,51.0,46.0,-100.00,SE,138,3.0,8.0,88,0.00,,,-99.99,,2013-01-12 05:32:00,
2013-01-12 00:42:00,51.0,46.0,-100.00,East,96,2.0,8.0,88,0.00,,,-99.99,,2013-01-12 05:42:00,
2013-01-12 00:52:00,50.0,46.0,-100.00,ESE,104,2.0,8.0,88,0.00,,,-99.99,,2013-01-12 05:52:00,
2013-01-12 01:02:00,51.0,46.0,-100.00,SE,139,4.0,8.0,86,0.00,,,-99.99,,2013-01-12 06:02:00,
2013-01-12 01:12:00,51.0,46.0,-100.00,SE,129,4.0,8.0,86,0.00,,,-99.99,,2013-01-12 06:12:00,
2013-01-12 01:22:00,51.0,46.0,-100.00,SE,132,3.0,8.0,86,0.00,,,-99.99,,2013-01-12 06:22:00,
2013-01-12 01:33:00,51.0,46.0,-100.00,SE,129,4.0,8.0,86,0.00,,,-99.99,,2013-01-12 06:33:00,
2013-01-12 01:43:00,51.0,46.0,-100.00,SE,136,3.0,8.0,86,0.00,,,-99.99,,2013-01-12 06:43:00,
2013-01-12 01:52:00,51.0,46.0,-100.00,ESE,114,4.0,8.0,86,0.00,,,-99.99,,2013-01-12 06:52:00,
2013-01-12 02:02:00,51.0,46.0,-100.00,ESE,120,4.0,8.0,86,0.00,,,-99.99,,2013-01-12 07:02:00,
2013-01-12 02:12:00,50.0,45.0,-100.00,SE,132,4.0,8.0,86,0.00,,,-99.99,,2013-01-12 07:12:00,
2013-01-12 02:22:00,50.0,45.0,-100.00,ESE,122,4.0,8.0,86,0.00,,,-99.99,,2013-01-12 07:22:00,
2013-01-12 02:32:00,51.0,46.0,-100.00,ESE,117,3.0,8.0,88,0.00,,,-99.99,,2013-01-12 07:32:00,
2013-01-12 02:42:00,50.0,45.0,-100.00,ESE,112,4.0,8.0,86,0.00,,,-99.99,,2013-01-12 07:42:00,
2013-01-12 02:52:00,51.0,46.0,-100.00,ESE,122,4.0,8.0,88,0.00,,,-99.99,,2013-01-12 07:52:00,
2013-01-12 03:02:00,50.0,46.0,-100.00,East,83,4.0,8.0,88,0.00,,,-99.99,,2013-01-12 08:02:00,
2013-01-12 03:12:00,49.0,45.0,-100.00,East,101,4.0,8.0,88,0.00,,,-99.99,,2013-01-12 08:12:00,
2013-01-12 03:22:00,47.0,43.0,-100.00,ESE,112,4.0,8.0,89,0.00,,,-99.99,,2013-01-12 08:22:00,
2013-01-12 03:32:00,47.0,43.0,-100.00,East,98,4.0,8.0,89,0.00,,,-99.99,,2013-01-12 08:32:00,
2013-01-12 03:42:00,47.0,43.0,-100.00,ESE,107,4.0,8.0,89,0.00,,,-99.99,,2013-01-12 08:42:00,
2013-01-12 03:52:00,47.0,43.0,-100.00,ESE,118,4.0,8.0,89,0.00,,,-99.99,,2013-01-12 08:52:00,
2013-01-12 04:02:00,49.0,45.0,-100.00,East,94,5.0,8.0,91,4.53,,,-99.99,,2013-01-12 09:02:00,
2013-01-12 04:12:00,49.0,46.0,-100.00,East,98,5.0,8.0,91,4.53,,,-99.99,,2013-01-12 09:12:00,
2013-01-12 04:22:00,49.0,46.0,-100.00,ESE,103,6.0,8.0,93,4.53,,,-99.99,,2013-01-12 09:22:00,
2013-01-12 04:32:00,47.0,45.0,-100.00,East,97,6.0,8.0,93,4.53,,,-99.99,,2013-01-12 09:32:00,
2013-01-12 04:42:00,47.0,45.0,-100.00,ESE,122,5.0,8.0,91,4.53,,,-99.99,,2013-01-12 09:42:00,
2013-01-12 04:53:00,48.0,45.0,-100.00,ESE,108,6.0,8.0,93,4.53,,,-99.99,,2013-01-12 09:53:00,
2013-01-12 05:02:00,47.0,45.0,-100.00,SE,129,7.0,8.0,91,4.53,,,-99.99,,2013-01-12 10:02:00,
2013-01-12 05:12:00,47.0,45.0,-100.00,ESE,108,6.0,8.0,93,4.53,,,-99.99,,2013-01-12 10:12:00,
2013-01-12 05:22:00,48.0,45.0,-100.00,ESE,122,6.0,8.0,93,4.53,,,-99.99,,2013-01-12 10:22:00,
2013-01-12 05:32:00,47.0,45.0,-100.00,East,86,6.0,8.0,93,4.53,,,-99.99,,2013-01-12 10:32:00,
2013-01-12 05:43:00,48.0,45.0,-100.00,East,100,6.0,8.0,93,4.53,,,-99.99,,2013-01-12 10:43:00,
2013-01-12 05:52:00,48.0,45.0,-100.00,ESE,117,6.0,8.0,93,1.14,,,-99.99,,2013-01-12 10:52:00,
2013-01-12 06:02:00,49.0,46.0,-100.00,SE,127,6.0,8.0,93,0.00,,,-99.99,,2013-01-12 11:02:00,
2013-01-12 06:12:00,49.0,46.0,-100.00,ESE,121,7.0,12.0,93,4.53,,,-99.99,,2013-01-12 11:12:00,
2013-01-12 06:22:00,49.0,46.0,-100.00,East,100,6.0,12.0,93,4.53,,,-99.99,,2013-01-12 11:22:00,
2013-01-12 06:33:00,49.0,46.0,-100.00,SE,127,7.0,12.0,93,4.53,,,-99.99,,2013-01-12 11:33:00,
2013-01-12 06:42:00,49.0,46.0,-100.00,ESE,117,6.0,12.0,93,4.53,,,-99.99,,2013-01-12 11:42:00,
2013-01-12 06:53:00,50.0,46.0,-100.00,SE,129,5.0,12.0,93,4.53,,,-99.99,,2013-01-12 11:53:00,
2013-01-12 07:03:00,50.0,48.0,-100.00,East,81,6.0,12.0,93,4.53,,,-99.99,,2013-01-12 12:03:00,
2013-01-12 07:12:00,53.0,50.0,-100.00,East,101,5.0,12.0,94,0.00,,,-99.99,,2013-01-12 12:12:00,
2013-01-12 07:22:00,53.0,50.0,-100.00,SE,134,5.0,12.0,94,0.00,,,-99.99,,2013-01-12 12:22:00,
2013-01-12 07:33:00,53.0,50.0,-100.00,SE,135,6.0,12.0,94,0.00,,,-99.99,,2013-01-12 12:33:00,
2013-01-12 07:43:00,53.0,50.0,-100.00,SE,129,7.0,12.0,94,0.00,,,-99.99,,2013-01-12 12:43:00,
2013-01-12 07:52:00,54.0,52.0,-100.00,ESE,117,6.0,12.0,94,0.00,,,-99.99,,2013-01-12 12:52:00,
2013-01-12 08:02:00,54.0,52.0,-100.00,ESE,112,6.0,12.0,94,0.00,,,-99.99,,2013-01-12 13:02:00,
2013-01-12 08:12:00,55.0,52.0,-100.00,East,87,7.0,12.0,94,0.00,,,-99.99,,2013-01-12 13:12:00,
2013-01-12 08:23:00,54.0,52.0,-100.00,East,96,8.0,12.0,94,0.00,,,-99.99,,2013-01-12 13:23:00,
2013-01-12 08:33:00,55.0,52.0,-100.00,SE,131,7.0,12.0,94,0.00,,,-99.99,,2013-01-12 13:33:00,
2013-01-12 08:43:00,55.0,52.0,-100.00,ESE,103,6.0,12.0,94,0.00,,,-99.99,,2013-01-12 13:43:00,
2013-01-12 08:53:00,55.0,52.0,-100.00,SE,142,7.0,12.0,94,0.00,,,-99.99,,2013-01-12 13:53:00,
2013-01-12 09:02:00,55.0,52.0,-100.00,East,90,6.0,12.0,93,0.00,,,-99.99,,2013-01-12 14:02:00,
2013-01-12 09:12:00,55.0,52.0,-100.00,ESE,107,7.0,12.0,93,0.00,,,-99.99,,2013-01-12 14:12:00,
2013-01-12 09:22:00,55.0,52.0,-100.00,ESE,121,7.0,12.0,93,0.00,,,-99.99,,2013-01-12 14:22:00,
2013-01-12 09:33:00,55.0,52.0,-100.00,East,97,6.0,12.0,93,0.00,,,-99.99,,2013-01-12 14:33:00,
2013-01-12 09:43:00,55.0,52.0,-100.00,SSE,151,7.0,12.0,93,0.00,,,-99.99,,2013-01-12 14:43:00,
2013-01-12 09:53:00,54.0,50.0,-100.00,SE,128,8.0,12.0,91,0.00,,,-99.99,,2013-01-12 14:53:00,
2013-01-12 10:03:00,54.0,50.0,-100.00,SSE,162,8.0,12.0,91,0.00,,,-99.99,,2013-01-12 15:03:00,
2013-01-12 10:13:00,55.0,52.0,-100.00,East,98,7.0,12.0,91,0.00,,,-99.99,,2013-01-12 15:13:00,
2013-01-12 10:23:00,54.0,50.0,-100.00,East,101,6.0,12.0,90,0.00,,,-99.99,,2013-01-12 15:23:00,
2013-01-12 10:33:00,54.0,50.0,-100.00,SE,128,6.0,12.0,90,0.00,,,-99.99,,2013-01-12 15:33:00,
2013-01-12 10:43:00,55.0,52.0,-100.00,SE,125,7.0,12.0,90,0.00,,,-99.99,,2013-01-12 15:43:00,
2013-01-12 10:53:00,55.0,50.0,-100.00,SE,127,7.0,12.0,90,0.00,,,-99.99,,2013-01-12 15:53:00,
2013-01-12 11:03:00,55.0,50.0,-100.00,ESE,121,7.0,12.0,89,0.00,,,-99.99,,2013-01-12 16:03:00,
2013-01-12 11:12:00,55.0,52.0,-100.00,ESE,107,6.0,12.0,89,0.00,,,-99.99,,2013-01-12 16:12:00,
2013-01-12 11:23:00,56.0,52.0,-100.00,ESE,112,6.0,12.0,89,0.00,,,-99.99,,2013-01-12 16:23:00,
2013-01-12 11:33:00,56.0,52.0,-100.00,SSE,152,8.0,14.0,86,0.00,,,-99.99,,2013-01-12 16:33:00,
2013-01-12 11:43:00,57.0,52.0,-100.00,ESE,118,9.0,14.0,86,0.00,,,-99.99,,2013-01-12 16:43:00,
2013-01-12 11:53:00,58.0,54.0,-100.00,ESE,121,6.0,14.0,86,0.00,,,-99.99,,2013-01-12 16:53:00,
2013-01-12 12:02:00,57.0,52.0,-100.00,SSE,165,7.0,14.0,84,0.00,,,-99.99,,2013-01-12 17:02:00,
2013-01-12 12:12:00,57.0,50.0,-100.00,SSE,151,9.0,14.0,82,0.00,,,-99.99,,2013-01-12 17:12:00,
2013-01-12 12:23:00,57.0,50.0,-100.00,SE,132,8.0,14.0,82,0.00,,,-99.99,,2013-01-12 17:23:00,
2013-01-12 12:33:00,58.0,52.0,-100.00,SE,144,7.0,14.0,81,0.00,,,-99.99,,2013-01-12 17:33:00,
2013-01-12 12:43:00,58.0,52.0,-100.00,SE,142,7.0,14.0,81,0.00,,,-99.99,,2013-01-12 17:43:00,
2013-01-12 12:53:00,58.0,50.0,-100.00,SE,144,6.0,14.0,80,0.00,,,-99.99,,2013-01-12 17:53:00,
2013-01-12 13:03:00,58.0,52.0,-100.00,SSE,152,9.0,14.0,80,0.00,,,-99.99,,2013-01-12 18:03:00,
2013-01-12 13:12:00,58.0,52.0,-100.00,SSE,160,8.0,14.0,80,0.00,,,-99.99,,2013-01-12 18:12:00,
2013-01-12 13:23:00,59.0,50.0,-100.00,SSE,148,7.0,14.0,78,0.00,,,-99.99,,2013-01-12 18:23:00,
2013-01-12 13:33:00,59.0,52.0,-100.00,SE,146,7.0,14.0,77,0.00,,,-99.99,,2013-01-12 18:33:00,
2013-01-12 13:43:00,59.0,52.0,-100.00,ESE,107,7.0,14.0,77,0.00,,,-99.99,,2013-01-12 18:43:00,
2013-01-12 13:52:00,60.0,52.0,-100.00,SE,124,7.0,14.0,76,0.00,,,-99.99,,2013-01-12 18:52:00,
2013-01-12 14:03:00,62.0,54.0,-100.00,SSE,155,8.0,14.0,76,0.00,,,-99.99,,2013-01-12 19:03:00,
2013-01-12 14:12:00,60.0,52.0,-100.00,ESE,107,4.0,14.0,75,0.00,,,-99.99,,2013-01-12 19:12:00,
2013-01-12 14:23:00,60.0,50.0,-100.00,SSE,155,6.0,14.0,73,0.00,,,-99.99,,2013-01-12 19:23:00,
2013-01-12 14:33:00,60.0,50.0,-100.00,ESE,118,6.0,14.0,73,0.00,,,-99.99,,2013-01-12 19:33:00,
2013-01-12 14:43:00,62.0,54.0,-100.00,SE,138,7.0,14.0,75,0.00,,,-99.99,,2013-01-12 19:43:00,
2013-01-12 14:52:00,63.0,54.0,-100.00,ESE,115,7.0,14.0,73,0.00,,,-99.99,,2013-01-12 19:52:00,
2013-01-12 15:03:00,60.0,50.0,-100.00,SE,136,7.0,14.0,72,0.00,,,-99.99,,2013-01-12 20:03:00,
2013-01-12 15:13:00,61.0,52.0,-100.00,SE,138,5.0,14.0,72,0.00,,,-99.99,,2013-01-12 20:13:00,
2013-01-12 15:22:00,60.0,50.0,-100.00,ESE,114,6.0,14.0,73,0.00,,,-99.99,,2013-01-12 20:22:00,
2013-01-12 15:33:00,60.0,50.0,-100.00,SE,134,7.0,14.0,72,0.00,,,-99.99,,2013-01-12 20:33:00,
2013-01-12 15:42:00,60.0,50.0,-100.00,SE,127,9.0,14.0,72,0.00,,,-99.99,,2013-01-12 20:42:00,
2013-01-12 15:53:00,61.0,50.0,-100.00,ESE,114,9.0,14.0,72,0.00,,,-99.99,,2013-01-12 20:53:00,
2013-01-12 16:03:00,61.0,52.0,-100.00,ESE,115,7.0,14.0,72,0.00,,,-99.99,,2013-01-12 21:03:00,
2013-01-12 16:12:00,60.0,50.0,-100.00,SSE,160,11.0,14.0,72,0.00,,,-99.99,,2013-01-12 21:12:00,
2013-01-12 16:22:00,60.0,50.0,-100.00,SE,145,8.0,14.0,72,0.00,,,-99.99,,2013-01-12 21:22:00,
2013-01-12 16:33:00,60.0,50.0,-100.00,SSE,155,6.0,14.0,72,0.00,,,-99.99,,2013-01-12 21:33:00,
2013-01-12 16:43:00,60.0,50.0,-100.00,ESE,121,9.0,14.0,72,0.00,,,-99.99,,2013-01-12 21:43:00,
2013-01-12 16:52:00,62.0,52.0,-100.00,SE,128,7.0,14.0,73,0.00,,,-99.99,,2013-01-12 21:52:00,
2013-01-12 17:03:00,60.0,50.0,-100.00,SE,138,7.0,14.0,72,0.00,,,-99.99,,2013-01-12 22:03:00,
2013-01-12 17:12:00,60.0,50.0,-100.00,SE,128,6.0,14.0,73,0.00,,,-99.99,,2013-01-12 22:12:00,
2013-01-12 17:23:00,60.0,50.0,-100.00,SE,128,4.0,14.0,73,0.00,,,-99.99,,2013-01-12 22:23:00,
2013-01-12 17:33:00,59.0,50.0,-100.00,SSE,148,5.0,14.0,75,0.00,,,-99.99,,2013-01-12 22:33:00,
2013-01-12 17:43:00,59.0,50.0,-100.00,SSE,155,4.0,14.0,76,0.00,,,-99.99,,2013-01-12 22:43:00,
2013-01-12 17:52:00,58.0,50.0,-100.00,SE,127,4.0,14.0,77,0.00,,,-99.99,,2013-01-12 22:52:00,
2013-01-12 18:03:00,59.0,50.0,-100.00,SE,131,2.0,14.0,77,0.00,,,-99.99,,2013-01-12 23:03:00,
2013-01-12 18:13:00,58.0,50.0,-100.00,SE,127,3.0,14.0,78,0.00,,,-99.99,,2013-01-12 23:13:00,
2013-01-12 18:23:00,58.0,50.0,-100.00,SE,124,2.0,14.0,78,0.00,,,-99.99,,2013-01-12 23:23:00,
2013-01-12 18:33:00,56.0,50.0,-100.00,SE,124,2.0,14.0,80,0.00,,,-99.99,,2013-01-12 23:33:00,
2013-01-12 18:43:00,57.0,50.0,-100.00,ENE,72,2.0,14.0,80,0.00,,,-99.99,,2013-01-12 23:43:00,
2013-01-12 18:53:00,56.0,50.0,-100.00,ESE,111,2.0,14.0,81,0.00,,,-99.99,,2013-01-12 23:53:00,
2013-01-12 19:03:00,56.0,50.0,-100.00,East,100,2.0,14.0,81,0.00,,,-99.99,,2013-01-13 00:03:00,
2013-01-12 19:12:00,56.0,50.0,-100.00,East,88,2.0,14.0,82,0.00,,,-99.99,,2013-01-13 00:12:00,
2013-01-12 19:23:00,56.0,50.0,-100.00,East,97,2.0,2.0,82,0.00,,,-99.99,,2013-01-13 00:23:00,
2013-01-12 19:33:00,55.0,50.0,-100.00,East,87,2.0,2.0,84,0.00,,,-99.99,,2013-01-13 00:33:00,
2013-01-12 19:43:00,57.0,52.0,-100.00,East,90,1.0,2.0,85,0.00,,,-99.99,,2013-01-13 00:43:00,
2013-01-12 19:52:00,58.0,52.0,-100.00,ESE,114,2.0,2.0,85,0.00,,,-99.99,,2013-01-13 00:52:00,
2013-01-12 20:03:00,57.0,52.0,-100.00,East,101,2.0,2.0,85,0.00,,,-99.99,,2013-01-13 01:03:00,
2013-01-12 20:12:00,57.0,52.0,-100.00,East,93,2.0,2.0,85,0.00,,,-99.99,,2013-01-13 01:12:00,
2013-01-12 20:23:00,56.0,52.0,-100.00,East,79,2.0,2.0,86,0.00,,,-99.99,,2013-01-13 01:23:00,
2013-01-12 20:33:00,57.0,52.0,-100.00,East,98,2.0,2.0,86,0.00,,,-99.99,,2013-01-13 01:33:00,
2013-01-12 20:43:00,57.0,52.0,-100.00,East,100,2.0,2.0,88,0.00,,,-99.99,,2013-01-13 01:43:00,
2013-01-12 20:52:00,57.0,52.0,-100.00,East,93,2.0,2.0,88,0.00,,,-99.99,,2013-01-13 01:52:00,
2013-01-12 21:02:00,56.0,52.0,-100.00,ESE,115,2.0,2.0,86,0.00,,,-99.99,,2013-01-13 02:02:00,
2013-01-12 21:13:00,57.0,52.0,-100.00,ESE,111,2.0,2.0,88,0.00,,,-99.99,,2013-01-13 02:13:00,
2013-01-12 21:23:00,57.0,52.0,-100.00,East,87,2.0,2.0,88,0.00,,,-99.99,,2013-01-13 02:23:00,
2013-01-12 21:33:00,57.0,52.0,-100.00,East,93,2.0,2.0,88,0.00,,,-99.99,,2013-01-13 02:33:00,
2013-01-12 21:43:00,57.0,52.0,-100.00,East,98,4.0,4.0,88,0.00,,,-99.99,,2013-01-13 02:43:00,
2013-01-12 21:53:00,58.0,54.0,-100.00,East,98,3.0,4.0,88,0.00,,,-99.99,,2013-01-13 02:53:00,
2013-01-12 22:03:00,57.0,52.0,-100.00,ENE,77,3.0,4.0,88,0.00,,,-99.99,,2013-01-13 03:03:00,
2013-01-12 22:12:00,56.0,52.0,-100.00,East,86,2.0,4.0,88,0.00,,,-99.99,,2013-01-13 03:12:00,
2013-01-12 22:22:00,57.0,52.0,-100.00,East,80,2.0,4.0,88,0.00,,,-99.99,,2013-01-13 03:22:00,
2013-01-12 22:33:00,57.0,52.0,-100.00,East,80,2.0,4.0,88,0.00,,,-99.99,,2013-01-13 03:33:00,
2013-01-12 22:43:00,58.0,54.0,-100.00,East,98,2.0,4.0,89,0.00,,,-99.99,,2013-01-13 03:43:00,
2013-01-12 22:52:00,55.0,50.0,-100.00,East,101,3.0,4.0,88,0.00,,,-99.99,,2013-01-13 03:52:00,
2013-01-12 23:03:00,55.0,50.0,-100.00,East,86,2.0,4.0,88,0.00,,,-99.99,,2013-01-13 04:03:00,
2013-01-12 23:12:00,55.0,50.0,-100.00,East,101,3.0,4.0,88,0.00,,,-99.99,,2013-01-13 04:12:00,
2013-01-12 23:22:00,56.0,50.0,-100.00,East,97,4.0,4.0,86,0.00,,,-99.99,,2013-01-13 04:22:00,
2013-01-12 23:33:00,56.0,52.0,-100.00,East,90,4.0,4.0,86,0.00,,,-99.99,,2013-01-13 04:33:00,
2013-01-12 23:43:00,56.0,52.0,-100.00,ESE,103,4.0,6.0,86,0.00,,,-99.99,,2013-01-13 04:43:00,
2013-01-12 23:52:00,56.0,52.0,-100.00,ESE,110,3.0,6.0,86,0.00,,,-99.99,,2013-01-13 04:52:00,